| time (UTC) | temp F | wind direction | speed MPH | gust MPH | rain 1hr in | rain 24hr in | rain mn in | humidity % | barometer mb |
| 20260904140002 | 70 | 310 | 0.0 | 4.0 | 0.00 | 0.00 | 0.01 | 82 | 1015.9 |
| 20260904134503 | 68 | 335 | 2.0 | 2.0 | 0.00 | 0.00 | 0.01 | 94 | 1016.3 |
| 20260904133003 | 67 | 323 | 0.0 | 0.0 | 0.00 | 0.00 | 0.01 | 99 | 1016.3 |
| 20260904132001 | 67 | 68 | 0.0 | 2.0 | 0.00 | 0.00 | 0.01 | 100 | 1016.3 |
| 20260904130502 | 66 | 333 | 1.0 | 1.0 | 0.00 | 0.00 | 0.01 | 100 | 1016.6 |
| 20260904125402 | 66 | 45 | 0.0 | 0.0 | 0.00 | 0.00 | 0.01 | 100 | 1016.3 |
| 20260904124002 | 65 | 44 | 0.0 | 2.0 | 0.00 | 0.00 | 0.01 | 100 | 1016.6 |
| 20260904122903 | 65 | 323 | 0.0 | 0.0 | 0.00 | 0.00 | 0.01 | 100 | 1016.3 |
| 20260904121502 | 65 | 318 | 0.0 | 0.0 | 0.00 | 0.00 | 0.01 | 100 | 1016.3 |
| 20260904120003 | 64 | 295 | 0.0 | 0.0 | 0.00 | 0.00 | 0.01 | 100 | 1016.3 |
| 20260904114503 | 64 | 278 | 0.0 | 0.0 | 0.00 | 0.00 | 0.01 | 100 | 1015.9 |
| 20260904113501 | 64 | 316 | 0.0 | 0.0 | 0.00 | 0.00 | 0.01 | 100 | 1015.6 |
| 20260904112004 | 64 | 299 | 0.0 | 0.0 | 0.00 | 0.00 | 0.01 | 100 | 1015.6 |
| 20260904110503 | 64 | 306 | 0.0 | 0.0 | 0.00 | 0.00 | 0.01 | 100 | 1015.6 |
| 20260904105502 | 64 | 322 | 0.0 | 0.0 | 0.00 | 0.00 | 0.01 | 100 | 1015.6 |
| 20260904103903 | 65 | 307 | 0.0 | 0.0 | 0.00 | 0.00 | 0.01 | 100 | 1015.6 |
| 20260904102402 | 64 | 344 | 0.0 | 0.0 | 0.00 | 0.00 | 0.01 | 100 | 1015.6 |
| 20260904100901 | 64 | 319 | 0.0 | 0.0 | 0.00 | 0.00 | 0.01 | 100 | 1015.6 |
| 20260904095401 | 64 | 290 | 0.0 | 0.0 | 0.00 | 0.00 | 0.01 | 100 | 1015.6 |
| 20260904093902 | 65 | 305 | 0.0 | 0.0 | 0.00 | 0.00 | 0.01 | 100 | 1015.2 |
| 20260904092402 | 65 | 298 | 0.0 | 0.0 | 0.00 | 0.00 | 0.01 | 100 | 1015.2 |
| 20260904090902 | 65 | 326 | 0.0 | 0.0 | 0.00 | 0.00 | 0.01 | 100 | 1015.2 |
| 20260904085902 | 65 | 305 | 0.0 | 0.0 | 0.00 | 0.00 | 0.01 | 100 | 1015.2 |
| 20260904084502 | 65 | 293 | 0.0 | 0.0 | 0.00 | 0.00 | 0.01 | 100 | 1015.2 |
| 20260904083402 | 66 | 311 | 0.0 | 0.0 | 0.00 | 0.00 | 0.01 | 100 | 1015.2 |
| 20260904081901 | 66 | 312 | 0.0 | 0.0 | 0.00 | 0.00 | 0.01 | 100 | 1015.2 |
| 20260904080402 | 66 | 5 | 0.0 | 0.0 | 0.00 | 0.00 | 0.01 | 100 | 1014.9 |
| 20260904074902 | 66 | 313 | 0.0 | 0.0 | 0.00 | 0.00 | 0.01 | 100 | 1014.9 |
| 20260904073402 | 66 | 313 | 0.0 | 0.0 | 0.00 | 0.00 | 0.01 | 100 | 1014.6 |
| 20260904071902 | 65 | 303 | 0.0 | 0.0 | 0.00 | 0.00 | 0.01 | 100 | 1014.6 |
| 20260904065902 | 65 | 313 | 0.0 | 0.0 | 0.00 | 0.00 | 0.01 | 100 | 1014.9 |
| 20260904064402 | 65 | 306 | 0.0 | 0.0 | 0.01 | 0.00 | 0.01 | 100 | 1014.9 |
| 20260904063002 | 66 | 309 | 0.0 | 0.0 | 0.01 | 0.00 | 0.01 | 99 | 1014.6 |
| 20260904061902 | 66 | 311 | 0.0 | 0.0 | 0.01 | 0.00 | 0.01 | 100 | 1014.6 |
| 20260904060501 | 67 | 340 | 0.0 | 0.0 | 0.01 | 0.00 | 0.01 | 100 | 1014.6 |
| 20260904055403 | 67 | 291 | 0.0 | 0.0 | 0.00 | 0.00 | 0.00 | 100 | 1014.9 |
| 20260904054001 | 68 | 333 | 0.0 | 0.0 | 0.00 | 0.00 | 0.00 | 99 | 1014.9 |
| 20260904052502 | 68 | 290 | 0.0 | 0.0 | 0.00 | 0.00 | 0.00 | 99 | 1014.9 |
| 20260904051002 | 69 | 336 | 0.0 | 0.0 | 0.00 | 0.00 | 0.00 | 99 | 1015.2 |
| 20260904045501 | 69 | 307 | 0.0 | 0.0 | 0.00 | 0.00 | 0.00 | 100 | 1015.2 |
| 20260904043902 | 69 | 287 | 0.0 | 0.0 | 0.00 | 0.00 | 0.00 | 100 | 1015.2 |
| 20260904042901 | 69 | 330 | 0.0 | 0.0 | 0.00 | 0.00 | 0.00 | 99 | 1014.9 |
| 20260904041502 | 69 | 311 | 0.0 | 0.0 | 0.00 | 0.00 | 0.00 | 99 | 1015.2 |
| 20260904040003 | 69 | 306 | 0.0 | 0.0 | 0.00 | 0.00 | 0.00 | 99 | 1014.9 |
| 20260904035001 | 69 | 316 | 0.0 | 0.0 | 0.00 | 0.00 | 1.53 | 99 | 1014.9 |
| 20260904033902 | 68 | 290 | 0.0 | 0.0 | 0.00 | 0.00 | 1.53 | 99 | 1014.9 |
| 20260904032403 | 68 | 312 | 0.0 | 0.0 | 0.00 | 0.00 | 1.53 | 99 | 1014.9 |
| 20260904031002 | 69 | 237 | 0.0 | 0.0 | 0.00 | 0.00 | 1.53 | 99 | 1014.6 |
| 20260904025902 | 68 | 311 | 0.0 | 0.0 | 0.00 | 0.00 | 1.53 | 99 | 1014.6 |
| 20260904024501 | 69 | 284 | 0.0 | 0.0 | 0.00 | 0.00 | 1.53 | 99 | 1014.6 |
| 20260904023002 | 69 | 298 | 0.0 | 0.0 | 0.00 | 0.00 | 1.53 | 99 | 1014.2 |
| 20260904021402 | 70 | 318 | 0.0 | 0.0 | 0.00 | 0.00 | 1.53 | 99 | 1014.6 |
| 20260904020002 | 70 | 333 | 0.0 | 0.0 | 0.00 | 0.00 | 1.53 | 99 | 1014.6 |
| 20260904015001 | 71 | 279 | 0.0 | 1.0 | 0.03 | 0.00 | 1.53 | 99 | 1014.6 |
| 20260904013902 | 71 | 43 | 0.0 | 2.0 | 0.04 | 0.00 | 1.53 | 99 | 1014.6 |
| 20260904012502 | 71 | 70 | 0.0 | 0.0 | 0.06 | 0.00 | 1.53 | 99 | 1014.2 |
| 20260904011002 | 71 | 326 | 0.0 | 0.0 | 0.21 | 0.00 | 1.53 | 98 | 1013.9 |
| 20260904005502 | 71 | 216 | 0.0 | 0.0 | 0.24 | 0.00 | 1.51 | 98 | 1013.5 |
| 20260904004502 | 71 | 209 | 0.0 | 0.0 | 0.47 | 0.00 | 1.49 | 98 | 1013.5 |
| 20260904003002 | 71 | 359 | 0.0 | 0.0 | 0.85 | 0.00 | 1.47 | 98 | 1013.5 |
| 20260904001502 | 71 | 283 | 0.0 | 0.0 | 0.74 | 0.00 | 1.33 | 98 | 1013.9 |
| 20260904000501 | 71 | 31 | 2.0 | 5.0 | 0.76 | 0.00 | 1.31 | 98 | 1013.9 |
| 20260903235003 | 73 | 47 | 5.0 | 8.0 | 0.94 | 0.00 | 0.98 | 97 | 1013.5 |
| 20260903234002 | 73 | 311 | 2.0 | 5.0 | 0.73 | 0.00 | 0.73 | 97 | 1013.5 |
| 20260903232502 | 73 | 312 | 6.0 | 6.0 | 0.59 | 0.00 | 0.59 | 96 | 1013.9 |
| 20260903231001 | 74 | 271 | 2.0 | 4.0 | 0.55 | 0.00 | 0.55 | 95 | 1013.9 |
| 20260903225503 | 76 | 319 | 0.0 | 3.0 | 0.11 | 0.00 | 0.11 | 90 | 1013.9 |
| 20260903224003 | 77 | 248 | 4.0 | 4.0 | 0.00 | 0.00 | 0.00 | 84 | 1013.9 |
| 20260903222503 | 78 | 286 | 2.0 | 3.0 | 0.00 | 0.00 | 0.00 | 82 | 1013.5 |
| 20260903221001 | 78 | 224 | 6.0 | 6.0 | 0.00 | 0.00 | 0.00 | 80 | 1013.2 |
| 20260903215902 | 79 | 314 | 1.0 | 8.0 | 0.00 | 0.00 | 0.00 | 79 | 1013.2 |
| 20260903214402 | 80 | 273 | 0.0 | 5.0 | 0.00 | 0.00 | 0.00 | 78 | 1012.9 |
| 20260903213003 | 79 | 264 | 1.0 | 3.0 | 0.00 | 0.00 | 0.00 | 78 | 1012.9 |
| 20260903211502 | 79 | 269 | 3.0 | 8.0 | 0.00 | 0.00 | 0.00 | 77 | 1013.2 |
| 20260903210003 | 80 | 170 | 4.0 | 7.0 | 0.00 | 0.00 | 0.00 | 77 | 1013.2 |
| 20260903204502 | 79 | 225 | 6.0 | 9.0 | 0.00 | 0.00 | 0.00 | 78 | 1013.5 |
| 20260903203003 | 80 | 244 | 3.0 | 8.0 | 0.00 | 0.00 | 0.00 | 76 | 1013.5 |
| 20260903201501 | 80 | 248 | 6.0 | 9.0 | 0.00 | 0.00 | 0.00 | 74 | 1013.9 |
| 20260903200002 | 81 | 227 | 5.0 | 10.0 | 0.00 | 0.00 | 0.00 | 72 | 1013.9 |
| 20260903194503 | 81 | 10 | 3.0 | 10.0 | 0.00 | 0.00 | 0.00 | 73 | 1013.9 |
| 20260903193001 | 83 | 209 | 4.0 | 7.0 | 0.00 | 0.00 | 0.00 | 71 | 1013.9 |
| 20260903191502 | 84 | 189 | 3.0 | 8.0 | 0.00 | 0.00 | 0.00 | 70 | 1014.2 |
| 20260903190002 | 84 | 212 | 4.0 | 6.0 | 0.00 | 0.00 | 0.00 | 72 | 1013.9 |
| 20260903184502 | 83 | 238 | 4.0 | 8.0 | 0.00 | 0.00 | 0.00 | 71 | 1013.9 |
| 20260903183502 | 85 | 248 | 4.0 | 11.0 | 0.00 | 0.00 | 0.00 | 68 | 1014.2 |
| 20260903182002 | 82 | 231 | 4.0 | 10.0 | 0.00 | 0.00 | 0.00 | 73 | 1014.2 |
| 20260903181001 | 83 | 282 | 6.0 | 10.0 | 0.00 | 0.00 | 0.00 | 70 | 1014.2 |
| 20260903175503 | 83 | 246 | 3.0 | 9.0 | 0.00 | 0.00 | 0.00 | 72 | 1014.2 |
| 20260903174502 | 81 | 197 | 4.0 | 9.0 | 0.00 | 0.00 | 0.00 | 76 | 1014.6 |
| 20260903173002 | 80 | 240 | 3.0 | 8.0 | 0.00 | 0.00 | 0.00 | 79 | 1014.6 |
| 20260903171503 | 79 | 265 | 2.0 | 9.0 | 0.00 | 0.00 | 0.00 | 80 | 1014.6 |
| 20260903170002 | 79 | 253 | 6.0 | 15.0 | 0.00 | 0.00 | 0.00 | 80 | 1014.9 |
| 20260903164901 | 80 | 237 | 6.0 | 11.0 | 0.00 | 0.00 | 0.00 | 77 | 1014.6 |
| 20260903163501 | 79 | 233 | 6.0 | 13.0 | 0.00 | 0.00 | 0.00 | 80 | 1014.6 |
| 20260903161902 | 78 | 222 | 4.0 | 10.0 | 0.00 | 0.00 | 0.00 | 81 | 1014.9 |
| 20260903160402 | 78 | 219 | 6.0 | 6.0 | 0.00 | 0.00 | 0.00 | 81 | 1014.9 |
| 20260903155002 | 78 | 270 | 3.0 | 4.0 | 0.00 | 0.00 | 0.00 | 81 | 1014.9 |
| 20260903153902 | 78 | 258 | 3.0 | 9.0 | 0.00 | 0.00 | 0.00 | 81 | 1015.2 |
| 20260903152901 | 78 | 268 | 4.0 | 4.0 | 0.00 | 0.00 | 0.00 | 82 | 1015.2 |
| 20260903151402 | 77 | 258 | 6.0 | 7.0 | 0.00 | 0.00 | 0.00 | 83 | 1015.2 |
| 20260903150002 | 77 | 212 | 3.0 | 9.0 | 0.00 | 0.00 | 0.00 | 83 | 1015.2 |
| 20260903144902 | 76 | 191 | 1.0 | 6.0 | 0.00 | 0.00 | 0.00 | 84 | 1015.2 |
| 20260903143503 | 76 | 259 | 1.0 | 6.0 | 0.00 | 0.00 | 0.00 | 85 | 1015.2 |
| 20260903142403 | 76 | 257 | 4.0 | 6.0 | 0.00 | 0.00 | 0.00 | 83 | 1014.9 |